sat.trackr.live / text

‹ back to catalog

STARLINK-36646

NORAD 67823 · 2026-033C

PAYLOAD ACTIVE UNKNOWN

§ Identity

Operator
Country
US
Launch date
2026-02-16
Launch site
AFETR
Launch vehicle
Mass (kg)
RCS (m²)

Purposes: comms

External: N2YO · Heavens-Above · Gunter

§ Orbital elements

Epoch: 2026-05-25T04:33:33.598944Z

Period
94.27 min
Inclination
43.0010°
Eccentricity
0.0001343
Mean motion
15.27589140 rev/d
Perigee alt
482.1 km
Apogee alt
483.9 km
Semi-major
6,861.2 km
B*
4.6874e-4
RAAN
195.0287°
Arg perigee
266.0401°
Mean anomaly
94.0297°
Rev number
1,637

§ Raw data

STARLINK-366461 67823U 26033C   26145.18997221  .00012662  00000+0  46874-3 0  99952 67823  43.0010 195.0287 0001343 266.0401  94.0297 15.27589140 16378

JSON: /api/v1/satellites/67823 · /tle

For live sub-satellite position, see the globe view (requires WebGL).

§ Visibility from observer

Set your observer location to see the next 7 days of passes ≥ 10°. The values pass through the URL so the page stays shareable.

No JS? Fill the form by hand. The geolocation button needs JavaScript.